Weather History for LFKJ - January, 2013

Change the Weather History Date:

Tuesday, January 1, 2013

  Actual Average Record
Temperature  
Mean Temperature 50 °F -  
Max Temperature 58 °F 55 °F 62 °F (1998)
Min Temperature 42 °F 37 °F 28 °F (2015)
Degree Days  
Heating Degree Days 15    
Moisture  
Dew Point 42 °F    
Average Humidity 79    
Maximum Humidity 94    
Minimum Humidity 46    
Precipitation  
Precipitation 0.04 in 0.10 in - ()
Sea Level Pressure  
Sea Level Pressure 30.07 in    
Wind  
Wind Speed 6 mph ()    
Max Wind Speed 9 mph    
Max Gust Speed -    
Visibility 6.1 miles    
Events Rain    
Averages and records for this station are not official NWS values.
T = Trace of Precipitation, MM = Missing Value Source: Averaged Metar Reports

Daily Weather History Graph

Daily Weather History Graph

Search for Another Location

Airport or City:

Trip Planner

Search our weather history database for the weather conditions in past years. The results will help you decide how hot, cold, wet, or windy it might be!

Date:

Astronomy

Jan. 01, 2013 Rise Set
Actual Time 7:52 AM CET 5:04 PM CET
Civil Twilight 7:21 AM CET 5:35 PM CET
Nautical Twilight 6:46 AM CET 6:10 PM CET
Astronomical Twilight 6:12 AM CET 6:44 PM CET
Moon 9:23 PM CET (1/1) 9:52 AM CET (1/1)
Length of Visible Light 10h 14m
Length of Day
9h 11m
Waning Gibbous, 85% of the Moon is Illuminated
Jan 1
Waning Gibbous
Jan 5
Last Quarter
Jan 11
New
Jan 19
First Quarter
Jan 27
Full

Hourly Weather History & Observations

Time (CET) Temp. Windchill Dew Point Humidity Pressure Visibility Wind Dir Wind Speed Gust Speed Precip Events Conditions
12:00 AM 44.6 °F 40.2 °F 41.0 °F 87% 30.15 in 6.2 mi NE 8.1 mph - N/A   Mostly Cloudy
12:30 AM 42.8 °F 38.0 °F 39.2 °F 87% 30.12 in 6.2 mi NE 8.1 mph - N/A   Mostly Cloudy
1:00 AM 43 °F - 38 °F 77% 30.15 in 18 mi NNE 9.2 mph - -   Clear
1:00 AM 42.8 °F 37.5 °F 37.4 °F 81% 30.12 in 6.2 mi NNE 9.2 mph - N/A   Mostly Cloudy
1:30 AM 42.8 °F 38.6 °F 39.2 °F 87% 30.12 in 6.2 mi NE 6.9 mph - N/A   Overcast
2:00 AM 42.8 °F 39.3 °F 39.2 °F 87% 30.12 in 6.2 mi NE 5.8 mph - N/A   Overcast
2:30 AM 42.8 °F 38.0 °F 39.2 °F 87% 30.12 in 6.2 mi NNE 8.1 mph - N/A   Overcast
3:00 AM 44.6 °F 40.7 °F 39.2 °F 81% 30.09 in 6.2 mi NE 6.9 mph - N/A   Mostly Cloudy
3:30 AM 44.6 °F 40.7 °F 39.2 °F 81% 30.09 in 6.2 mi NE 6.9 mph - N/A   Mostly Cloudy
4:00 AM 44.6 °F 41.4 °F 39.2 °F 81% 30.09 in 6.2 mi NE 5.8 mph - N/A   Mostly Cloudy
4:30 AM 44.6 °F 40.2 °F 39.2 °F 81% 30.09 in 6.2 mi NE 8.1 mph - N/A   Mostly Cloudy
5:00 AM 44.6 °F 41.4 °F 39.2 °F 81% 30.09 in 6.2 mi NE 5.8 mph - N/A   Mostly Cloudy
5:30 AM 44.6 °F 41.4 °F 39.2 °F 81% 30.09 in 6.2 mi NE 5.8 mph - N/A   Mostly Cloudy
6:00 AM 42.8 °F 38.6 °F 39.2 °F 87% 30.09 in 6.2 mi ENE 6.9 mph - N/A   Scattered Clouds
6:30 AM 42.8 °F 38.6 °F 39.2 °F 87% 30.09 in 6.2 mi NE 6.9 mph - N/A   Scattered Clouds
7:00 AM 43 °F - 38 °F 77% 30.11 in 25 mi NE 6.9 mph - -   Partly Cloudy
7:00 AM 42.8 °F 38.6 °F 39.2 °F 87% 30.09 in 6.2 mi NE 6.9 mph - N/A   Scattered Clouds
7:30 AM 42.8 °F 38.0 °F 39.2 °F 87% 30.09 in 6.2 mi NE 8.1 mph - N/A   Scattered Clouds
8:00 AM 42.8 °F 38.0 °F 39.2 °F 87% 30.09 in 6.2 mi NE 8.1 mph - N/A   Scattered Clouds
8:30 AM 42.8 °F 37.5 °F 37.4 °F 81% 30.09 in 6.2 mi NE 9.2 mph - N/A   Scattered Clouds
9:00 AM 44.6 °F 40.7 °F 39.2 °F 81% 30.09 in 6.2 mi NNE 6.9 mph - N/A   Scattered Clouds
9:30 AM 48.2 °F - 41.0 °F 76% 30.09 in 6.2 mi NNE 4.6 mph - N/A   Scattered Clouds
10:00 AM 48.2 °F - 41.0 °F 76% 30.09 in 6.2 mi NE 5.8 mph - N/A   Partly Cloudy
11:00 AM 55.4 °F - 41.0 °F 58% 30.09 in 6.2 mi Variable 2.3 mph - N/A   Partly Cloudy
11:30 AM 55.4 °F - 41.0 °F 58% 30.09 in 6.2 mi NNE 2.3 mph - N/A   Scattered Clouds
12:00 PM 59.0 °F - 42.8 °F 55% 30.06 in 6.2 mi Variable 1.2 mph - N/A   Scattered Clouds
12:30 PM 55.4 °F - 42.8 °F 63% 30.06 in 6.2 mi SW 6.9 mph - N/A   Scattered Clouds
1:00 PM 56 °F - 41 °F 46% 30.08 in 25 mi SW 5.8 mph - -   Scattered Clouds
1:00 PM 57.2 °F - 41.0 °F 55% 30.06 in 6.2 mi SW 5.8 mph - N/A   Mostly Cloudy
2:00 PM 55.4 °F - 44.6 °F 67% 30.06 in 6.2 mi SW 5.8 mph - N/A   Mostly Cloudy
2:30 PM 55.4 °F - 41.0 °F 58% 30.04 in 6.2 mi SW 6.9 mph - N/A   Mostly Cloudy
3:00 PM 55.4 °F - 41.0 °F 58% 30.04 in 6.2 mi West 1.2 mph - N/A   Mostly Cloudy
3:30 PM 55.4 °F - 44.6 °F 67% 30.04 in 6.2 mi NE 3.5 mph - N/A   Mostly Cloudy
4:00 PM 53.6 °F - 44.6 °F 72% 30.04 in 6.2 mi NE 3.5 mph - N/A   Mostly Cloudy
4:30 PM 53.6 °F - 44.6 °F 72% 30.04 in 6.2 mi Variable 3.5 mph - N/A   Mostly Cloudy
5:49 PM 51.8 °F - 46.4 °F 82% 30.04 in 6.2 mi ENE 5.8 mph - N/A   Overcast
6:00 PM 51.8 °F - 44.6 °F 76% 30.04 in 6.2 mi ENE 6.9 mph - N/A   Overcast
6:30 PM 51.8 °F - 44.6 °F 76% 30.04 in 6.2 mi ENE 6.9 mph - N/A   Light Drizzle
7:00 PM 50 °F - 45 °F 78% 30.07 in 2 mi ENE 4.6 mph - - Rain Heavy Drizzle
7:00 PM 50.0 °F - 44.6 °F 82% 30.06 in 2.5 mi NE 5.8 mph - N/A   Heavy Drizzle
7:30 PM 50.0 °F - 46.4 °F 87% 30.04 in 3.7 mi ENE 5.8 mph - N/A Rain Light Rain
8:00 PM 48.2 °F - 46.4 °F 93% 30.04 in 6.2 mi ENE 5.8 mph - N/A Rain Light Rain
8:30 PM 48.2 °F - 46.4 °F 93% 30.04 in 6.2 mi ENE 5.8 mph - N/A Rain Light Rain
9:00 PM 48.2 °F - 46.4 °F 93% 30.04 in 6.2 mi NE 6.9 mph - N/A Rain Light Rain
9:30 PM 48.2 °F - 46.4 °F 93% 30.04 in 6.2 mi NE 5.8 mph - N/A Rain Light Rain
10:00 PM 48.2 °F - 46.4 °F 93% 30.04 in 5.6 mi ENE 6.9 mph - N/A Rain Light Rain
10:30 PM 50.0 °F - 48.2 °F 94% 30.04 in 5.0 mi NNE 6.9 mph - N/A Rain Light Rain
11:00 PM 50.0 °F - 48.2 °F 94% 30.04 in 4.3 mi NE 6.9 mph - N/A Rain Light Rain
11:30 PM 48.2 °F - 46.4 °F 93% 30.01 in 5.0 mi NE 6.9 mph - N/A Rain Light Rain